Location: Degersen
(52.2871°N, 9.5716°E)
Time: 01:06:19
(UTC+00:00)

SJ 16-02 - Pass Details

Date: 20 January 2026
Orbit: 582 x 594 km, 75.0° (Epoch: 18 February)

Event Time Altitude Azimuth Distance (km) Brightness Sun altitude
Rises 05:22:16 0° 185° (S) 2,793 4.8 -17.3°
Reaches altitude 10° 05:24:31 10° 180° (S) 1,899 4.0 -17.0°
Maximum altitude 05:28:34 47° 106° (ESE) 783 2.4 -16.4°
Drops below altitude 10° 05:32:39 10° 33° (NNE) 1,917 4.1 -15.8°
Sets 05:34:56 0° 28° (NNE) 2,823 4.9 -15.4°
